Lacon, IL

5:21 AM CST on December 15, 2017 (GMT -0600)
Lacon

Weather History for KC75 - May, 2013

Change the Weather History Date:

Sunday, May 26, 2013

  Actual Average (KVYS) Record (KVYS)
Temperature  
Mean Temperature 56 °F -  
Max Temperature 62 °F 74 °F 93 °F (1977)
Min Temperature 49 °F 51 °F 35 °F (1992)
Degree Days  
Heating Degree Days 10    
Growing Degree Days 6 (Base 50)    
Moisture  
Dew Point 51 °F    
Average Humidity 86    
Maximum Humidity 96    
Minimum Humidity 74    
Precipitation  
Precipitation 1.37 in - - ()
Sea Level Pressure  
Sea Level Pressure 30.19 in    
Wind  
Wind Speed 9 mph (ESE)    
Max Wind Speed 17 mph    
Max Gust Speed 25 mph    
Visibility 8 miles    
Events Rain , Thunderstorm    
Averages and records for this station are not official NWS values.
T = Trace of Precipitation, MM = Missing Value Source: NWS Daily Summary

Daily Weather History Graph

Daily Weather History Graph

Search for Another Location

Airport or City:

Trip Planner

Search our weather history database for the weather conditions in past years. The results will help you decide how hot, cold, wet, or windy it might be!

Date:

Astronomy

May. 26, 2013 Rise Set
Actual Time 5:30 AM CDT 8:18 PM CDT
Civil Twilight 4:58 AM CDT 8:51 PM CDT
Nautical Twilight 4:17 AM CDT 9:32 PM CDT
Astronomical Twilight 3:30 AM CDT 10:19 PM CDT
Moon 10:05 PM CDT (5/26) 6:59 AM CDT (5/26)
Length of Visible Light 15h 53m
Length of Day
14h 48m
Waning Gibbous, 96% of the Moon is Illuminated
May 26
Waning Gibbous
May 31
Last Quarter
Jun 8
New
Jun 16
First Quarter
Jun 23
Full

Hourly Weather History & Observations

Time (CDT) Temp. Dew Point Humidity Pressure Visibility Wind Dir Wind Speed Gust Speed Precip Events Conditions
12:15 AM 50.0 °F 46.6 °F 88% 30.26 in 10.0 mi East 9.2 mph - N/A   Overcast
12:35 AM 50.0 °F 46.8 °F 89% 30.26 in 10.0 mi East 9.2 mph - N/A   Overcast
12:55 AM 50.2 °F 46.4 °F 87% 30.26 in 10.0 mi ESE 9.2 mph - N/A   Overcast
1:15 AM 50.4 °F 46.4 °F 86% 30.25 in 10.0 mi East 10.4 mph - N/A   Overcast
1:35 AM 50.5 °F 45.9 °F 84% 30.24 in 10.0 mi ESE 9.2 mph - N/A   Overcast
1:55 AM 50.5 °F 45.7 °F 83% 30.23 in 10.0 mi East 9.2 mph - N/A   Overcast
2:15 AM 50.5 °F 45.7 °F 83% 30.23 in 10.0 mi ESE 8.1 mph - N/A   Overcast
2:35 AM 50.5 °F 45.5 °F 83% 30.23 in 10.0 mi ESE 6.9 mph - N/A   Overcast
2:55 AM 50.9 °F 45.0 °F 80% 30.23 in 10.0 mi ESE 8.1 mph - N/A   Overcast
3:15 AM 51.3 °F 44.6 °F 78% 30.23 in 10.0 mi ESE 9.2 mph - N/A   Overcast
3:35 AM 50.9 °F 45.1 °F 81% 30.24 in 10.0 mi East 3.5 mph - N/A   Overcast
3:55 AM 50.5 °F 45.9 °F 84% 30.23 in 10.0 mi East 5.8 mph - N/A Thunderstorm Overcast
4:15 AM 50.0 °F 45.5 °F 85% 30.23 in 10.0 mi East 6.9 mph - N/A   Overcast
4:35 AM 50.0 °F 45.0 °F 83% 30.23 in 10.0 mi East 6.9 mph - N/A   Overcast
4:55 AM 50.0 °F 45.0 °F 83% 30.24 in 10.0 mi East 4.6 mph - N/A   Overcast
5:15 AM 49.6 °F 44.8 °F 83% 30.24 in 10.0 mi East 4.6 mph - N/A   Overcast
5:35 AM 49.8 °F 45.0 °F 83% 30.24 in 10.0 mi East 4.6 mph - N/A   Overcast
5:55 AM 49.5 °F 44.1 °F 82% 30.23 in 10.0 mi East 10.4 mph - N/A   Overcast
6:15 AM 49.5 °F 44.4 °F 83% 30.23 in 10.0 mi East 10.4 mph - N/A   Overcast
6:35 AM 50.0 °F 44.8 °F 82% 30.24 in 10.0 mi East 8.1 mph - N/A   Overcast
6:55 AM 50.0 °F 45.0 °F 83% 30.25 in 10.0 mi ESE 6.9 mph - N/A   Overcast
7:15 AM 50.5 °F 44.6 °F 80% 30.26 in 10.0 mi East 3.5 mph - N/A   Overcast
7:35 AM 50.0 °F 45.9 °F 86% 30.25 in 7.0 mi East 4.6 mph - N/A Rain Light Rain
7:55 AM 49.8 °F 46.4 °F 88% 30.25 in 7.0 mi East 6.9 mph - 0.01 in Rain , Thunderstorm Light Thunderstorms and Rain
8:15 AM 50.2 °F 46.2 °F 86% 30.25 in 10.0 mi East 11.5 mph - N/A   Overcast
8:35 AM 50.9 °F 46.0 °F 83% 30.25 in 10.0 mi East 9.2 mph - N/A   Overcast
8:55 AM 51.3 °F 45.7 °F 81% 30.26 in 10.0 mi ESE 8.1 mph - N/A   Overcast
9:15 AM 52.0 °F 45.3 °F 78% 30.26 in 10.0 mi ESE 4.6 mph - N/A   Overcast
9:35 AM 52.9 °F 45.5 °F 76% 30.25 in 10.0 mi ESE 6.9 mph - N/A   Overcast
9:55 AM 53.2 °F 45.1 °F 74% 30.26 in 10.0 mi SE 10.4 mph - N/A   Overcast
10:15 AM 53.1 °F 46.8 °F 79% 30.25 in 10.0 mi SE 9.2 mph - N/A   Light Drizzle
10:35 AM 52.2 °F 47.7 °F 85% 30.26 in 5.0 mi SE 6.9 mph - 0.03 in Rain Rain
10:55 AM 52.0 °F 48.7 °F 89% 30.25 in 7.0 mi SSE 6.9 mph - 0.06 in Rain Rain
11:15 AM 52.0 °F 49.6 °F 92% 30.23 in 5.0 mi SE 12.7 mph - 0.03 in Rain Rain
11:35 AM 52.2 °F 49.6 °F 91% 30.21 in 5.0 mi SE 8.1 mph - 0.06 in Rain Rain
11:55 AM 52.9 °F 50.2 °F 91% 30.20 in 7.0 mi SE 11.5 mph - 0.07 in Rain Light Rain
12:15 PM 54.0 °F 50.9 °F 89% 30.21 in 10.0 mi SE 15.0 mph 18.4 mph N/A   Scattered Clouds
12:35 PM 55.8 °F 52.3 °F 88% 30.21 in 10.0 mi SE 11.5 mph - N/A Rain Light Rain
12:55 PM 56.8 °F 52.9 °F 87% 30.21 in 10.0 mi ESE 9.2 mph - N/A   Mostly Cloudy
1:15 PM 59.2 °F 54.3 °F 84% 30.21 in 10.0 mi ESE 6.9 mph - N/A   Mostly Cloudy
1:35 PM 59.0 °F 53.8 °F 83% 30.20 in 10.0 mi ESE 8.1 mph - N/A   Overcast
1:55 PM 59.4 °F 54.1 °F 83% 30.20 in 10.0 mi ESE 6.9 mph - N/A   Overcast
2:15 PM 59.9 °F 54.5 °F 82% 30.20 in 10.0 mi ESE 8.1 mph - N/A   Overcast
2:35 PM 59.9 °F 54.5 °F 82% 30.19 in 10.0 mi ESE 8.1 mph - N/A   Overcast
2:55 PM 61.2 °F 55.0 °F 80% 30.18 in 10.0 mi SE 11.5 mph - N/A   Overcast
3:15 PM 61.2 °F 54.9 °F 80% 30.17 in 10.0 mi SE 12.7 mph 18.4 mph N/A   Overcast
3:35 PM 62.2 °F 55.4 °F 78% 30.15 in 10.0 mi SE 15.0 mph 21.9 mph N/A   Overcast
3:55 PM 62.1 °F 55.6 °F 79% 30.14 in 10.0 mi SE 10.4 mph 18.4 mph N/A   Overcast
4:15 PM 61.7 °F 55.8 °F 81% 30.14 in 10.0 mi ESE 8.1 mph 18.4 mph N/A   Overcast
4:35 PM 62.2 °F 55.6 °F 79% 30.14 in 10.0 mi SE 11.5 mph 21.9 mph N/A   Overcast
4:55 PM 61.9 °F 55.8 °F 80% 30.14 in 10.0 mi SE 9.2 mph 16.1 mph N/A   Overcast
5:15 PM 61.7 °F 55.8 °F 81% 30.16 in 10.0 mi East 9.2 mph - N/A   Overcast
5:35 PM 61.2 °F 55.8 °F 82% 30.16 in 10.0 mi East 10.4 mph - N/A   Overcast
5:55 PM 61.0 °F 56.1 °F 84% 30.13 in 10.0 mi East 11.5 mph 16.1 mph N/A Rain Light Rain
6:15 PM 61.0 °F 55.8 °F 83% 30.11 in 10.0 mi ESE 11.5 mph 17.3 mph N/A   Overcast
6:35 PM 60.8 °F 56.3 °F 85% 30.10 in 10.0 mi SE 10.4 mph 16.1 mph N/A   Light Drizzle
6:55 PM 59.9 °F 56.7 °F 89% 30.10 in 5.0 mi SE 10.4 mph - 0.01 in Thunderstorm Drizzle
7:15 PM 59.5 °F 56.8 °F 91% 30.08 in 10.0 mi ESE 11.5 mph 17.3 mph N/A Rain Rain
7:35 PM 59.0 °F 56.7 °F 92% 30.09 in 7.0 mi ESE 10.4 mph - 0.01 in Thunderstorm Overcast
7:55 PM 58.5 °F 56.7 °F 94% 30.11 in 7.0 mi North 4.6 mph - 0.04 in Rain , Thunderstorm Rain
8:15 PM 58.1 °F 55.9 °F 93% 30.10 in 3.0 mi East 12.7 mph 25.3 mph 0.12 in Rain Heavy Rain
8:35 PM 57.4 °F 55.9 °F 95% 30.10 in 3.0 mi East 11.5 mph 17.3 mph 0.23 in Rain , Thunderstorm Heavy Thunderstorms and Rain
8:55 PM 58.1 °F 56.3 °F 94% 30.11 in 4.0 mi East 11.5 mph 18.4 mph 0.33 in Rain , Thunderstorm Heavy Thunderstorms and Rain
9:15 PM 58.1 °F 56.3 °F 94% 30.09 in 4.0 mi ESE 11.5 mph 20.7 mph 0.06 in Rain , Thunderstorm Thunderstorms and Rain
9:35 PM 57.7 °F 56.3 °F 95% 30.10 in 5.0 mi East 9.2 mph 21.9 mph 0.13 in Rain , Thunderstorm Thunderstorms and Rain
9:55 PM 58.1 °F 56.5 °F 94% 30.10 in 4.0 mi ESE 15.0 mph 19.6 mph 0.27 in Rain , Thunderstorm Heavy Thunderstorms and Rain
10:15 PM 58.1 °F 56.8 °F 96% 30.09 in 3.0 mi ESE 17.3 mph 23.0 mph 0.16 in Rain , Thunderstorm Heavy Thunderstorms and Rain
10:35 PM 58.5 °F 56.8 °F 94% 30.09 in 5.0 mi ESE 9.2 mph - 0.29 in Rain , Thunderstorm Light Thunderstorms and Rain
10:55 PM 58.5 °F 57.2 °F 96% 30.10 in 5.0 mi SE 9.2 mph - 0.38 in Rain , Thunderstorm Heavy Thunderstorms and Rain
11:15 PM 58.6 °F 57.4 °F 96% 30.08 in 4.0 mi SE 12.7 mph - 0.09 in Rain , Thunderstorm Heavy Thunderstorms and Rain
11:35 PM 58.6 °F 57.4 °F 96% 30.07 in 5.0 mi SE 13.8 mph 23.0 mph 0.13 in Rain Rain
11:55 PM 59.0 °F 57.4 °F 94% 30.06 in 7.0 mi SE 15.0 mph 21.9 mph 0.20 in Rain , Thunderstorm Heavy Thunderstorms and Rain